{"data":{"norad_id":48691,"intl_designator":"2021-044BF","name":"STARLINK-2750","alt_names":[],"object_type":"PAYLOAD","status":"ACTIVE","operator":null,"country":"US","launch_date":"2021-05-26","launch_site_code":"AFETR","launch_vehicle":null,"mission":null,"orbit_class":"UNKNOWN","rcs_meters":null,"size_class":null,"mass_kg":null,"dimensions":null,"purposes":["comms"],"wikipedia_slug":null,"has_3d_model":false,"image_url":null,"decayed_at":null,"tle_current":{"epoch":"2026-09-19T16:36:25.134048Z","epoch_age_seconds":111149,"freshness":"FRESH","line1":"1 48691U 21044BF  26262.69195757  .00003959  00000+0  13920-3 0  9999","line2":"2 48691  53.1600 252.4500 0001760  83.9829 276.1373 15.31718184294087","mean_motion":15.31718184,"eccentricity":0.000176,"inclination_deg":53.16,"raan_deg":252.45,"arg_perigee_deg":83.9829,"mean_anomaly_deg":276.1373,"bstar":0.0001392,"rev_number":29408,"period_min":94.012071870787,"perigee_km":469.48039739305,"apogee_km":471.8911830152,"semimajor_km":6848.8227902041,"source":"CELESTRAK","updated_at":"2026-09-20T09:00:39.245115Z"}}}